TimeCDT,TemperatureF,Dew PointF,Humidity,Sea Level PressureIn,VisibilityMPH,Wind Direction,Wind SpeedMPH,Gust SpeedMPH,PrecipitationIn,Events,Conditions,WindDirDegrees,DateUTC
12:53 AM,48.9,46.9,93,29.99,10.0,North,3.5,-,N/A,,Overcast,10,2013-04-04 05:53:00
1:53 AM,48.9,46.9,93,29.95,10.0,NNE,4.6,-,N/A,,Overcast,20,2013-04-04 06:53:00
2:53 AM,48.9,48.0,97,29.96,4.0,NNW,6.9,-,N/A,,Overcast,340,2013-04-04 07:53:00
3:53 AM,48.9,48.0,97,29.94,5.0,North,3.5,-,N/A,,Overcast,350,2013-04-04 08:53:00
4:53 AM,48.9,48.0,97,29.94,3.0,North,4.6,-,N/A,,Overcast,360,2013-04-04 09:53:00
5:53 AM,48.9,48.0,97,29.96,3.0,NNW,3.5,-,0.01,,Overcast,340,2013-04-04 10:53:00
6:53 AM,48.9,48.0,97,29.98,3.0,WNW,3.5,-,N/A,,Overcast,300,2013-04-04 11:53:00
7:21 AM,48.2,48.2,100,29.98,2.0,NNW,4.6,-,N/A,,Overcast,330,2013-04-04 12:21:00
7:41 AM,48.2,48.2,100,29.99,3.0,NNW,3.5,-,N/A,,Overcast,340,2013-04-04 12:41:00
7:53 AM,48.9,48.0,97,29.99,4.0,Calm,Calm,-,N/A,,Overcast,0,2013-04-04 12:53:00
8:53 AM,50.0,48.9,96,29.99,4.0,NW,4.6,-,N/A,,Overcast,320,2013-04-04 13:53:00
9:53 AM,50.0,48.9,96,30.00,3.0,West,6.9,-,N/A,,Overcast,280,2013-04-04 14:53:00
10:53 AM,52.0,50.0,93,30.01,10.0,WNW,10.4,-,N/A,,Overcast,300,2013-04-04 15:53:00
11:53 AM,52.0,50.0,93,30.01,10.0,WNW,10.4,-,N/A,,Overcast,290,2013-04-04 16:53:00
12:30 PM,53.6,50.0,88,30.00,10.0,WNW,11.5,-,N/A,,Overcast,290,2013-04-04 17:30:00
12:53 PM,52.0,48.9,89,30.00,10.0,West,10.4,-,N/A,,Overcast,280,2013-04-04 17:53:00
1:05 PM,53.6,48.2,82,29.99,10.0,NW,9.2,-,N/A,,Overcast,310,2013-04-04 18:05:00
1:36 PM,53.6,48.2,82,29.98,10.0,NW,10.4,-,N/A,,Overcast,310,2013-04-04 18:36:00
1:53 PM,52.0,48.0,86,29.98,10.0,WNW,10.4,-,N/A,,Overcast,300,2013-04-04 18:53:00
2:53 PM,51.1,46.9,86,29.97,10.0,WNW,9.2,-,N/A,,Overcast,300,2013-04-04 19:53:00
3:53 PM,51.1,46.9,86,29.95,10.0,NW,10.4,-,N/A,,Overcast,310,2013-04-04 20:53:00
4:53 PM,51.1,46.9,86,29.96,10.0,NW,11.5,-,N/A,,Overcast,320,2013-04-04 21:53:00
5:41 PM,50.0,46.4,87,29.97,10.0,NW,10.4,-,N/A,,Overcast,310,2013-04-04 22:41:00
5:53 PM,50.0,46.9,89,29.97,6.0,NW,12.7,-,N/A,,Overcast,320,2013-04-04 22:53:00
6:48 PM,48.2,46.4,93,29.98,8.0,NNW,10.4,-,N/A,,Overcast,330,2013-04-04 23:48:00
6:53 PM,48.9,46.0,90,29.98,10.0,NW,9.2,-,N/A,,Overcast,320,2013-04-04 23:53:00
7:29 PM,48.2,46.4,93,29.99,10.0,NNW,10.4,-,N/A,,Overcast,330,2013-04-05 00:29:00
7:53 PM,48.0,46.0,93,29.99,8.0,NNW,11.5,-,N/A,,Overcast,330,2013-04-05 00:53:00
8:18 PM,48.2,46.4,93,30.01,5.0,NW,10.4,-,N/A,,Overcast,320,2013-04-05 01:18:00
8:42 PM,48.2,46.4,93,30.01,10.0,NNW,12.7,-,N/A,,Overcast,330,2013-04-05 01:42:00
8:53 PM,46.9,46.0,97,30.01,6.0,NW,8.1,-,N/A,,Overcast,320,2013-04-05 01:53:00
9:53 PM,46.9,45.0,93,30.02,10.0,NNW,10.4,-,N/A,,Overcast,330,2013-04-05 02:53:00
10:14 PM,46.4,44.6,93,30.03,10.0,NW,9.2,-,N/A,,Overcast,320,2013-04-05 03:14:00
10:45 PM,46.4,44.6,93,30.04,10.0,NW,10.4,-,N/A,,Overcast,320,2013-04-05 03:45:00
10:53 PM,46.9,44.1,90,30.04,10.0,NW,11.5,-,N/A,,Overcast,320,2013-04-05 03:53:00
11:53 PM,46.9,43.0,86,30.04,10.0,NW,11.5,-,N/A,,Overcast,320,2013-04-05 04:53:00